N2PUI Weather Reports


Display with metric or nautical units.
time (UTC)temp
F
wind
direction
speed
MPH
gust
MPH
rain 1hr
in
rain 24hr
in
rain mn
in
humidity
%
barometer
mb
20260509124444 47 128 0.0 0.0 0.07 0.17 0.17 95 1011.0
20260509123941 46 185 1.0 1.0 0.00 0.16 0.16 95 1011.0
20260509123438 45 169 0.0 0.0 0.05 0.16 0.16 94 1011.1
20260509122934 45 170 0.0 0.0 0.12 0.16 0.16 94 1011.1
20260509122431 45 169 0.0 0.0 0.07 0.15 0.15 94 1011.0
20260509121927 45 180 1.0 1.0 0.00 0.14 0.14 94 1011.1
20260509121425 46 162 0.0 0.0 0.05 0.14 0.14 94 1011.1
20260509120923 46 164 0.0 0.0 0.05 0.14 0.14 94 1011.1
20260509120420 46 151 0.0 1.0 0.07 0.13 0.13 94 1011.3
20260509115918 46 152 0.0 0.0 0.12 0.13 0.13 94 1011.3
20260509115415 46 132 1.0 1.0 0.12 0.12 0.12 94 1011.2
20260509114913 46 153 0.0 0.0 0.12 0.11 0.11 94 1011.2
20260509114411 46 161 0.0 0.0 0.12 0.10 0.10 94 1011.1
20260509113911 45 171 0.0 0.0 0.12 0.09 0.09 94 1011.2
20260509113408 44 173 0.0 0.0 0.12 0.08 0.08 94 1011.0
20260509112903 44 175 0.0 0.0 0.14 0.07 0.07 93 1011.1
20260509112401 44 181 0.0 0.0 0.07 0.06 0.06 93 1011.1
20260509111858 45 196 1.0 1.0 0.12 0.05 0.05 93 1011.0
20260509111354 46 162 1.0 1.0 0.12 0.04 0.04 94 1011.0
20260509110853 46 135 2.0 2.0 0.05 0.03 0.03 94 1011.0
20260509110348 45 143 1.0 1.0 0.07 0.02 0.02 93 1011.0
20260509105847 44 118 0.0 0.0 0.07 0.02 0.02 93 1010.9
20260509105345 43 148 0.0 0.0 0.00 0.01 0.01 93 1010.9
20260509104841 42 155 0.0 0.0 0.00 0.01 0.01 93 1011.0
20260509104338 42 155 0.0 0.0 0.00 0.01 0.01 92 1011.0
20260509103836 42 153 0.0 0.0 0.00 0.01 0.01 92 1010.9
20260509103333 42 153 0.0 0.0 0.00 0.01 0.01 92 1010.8
20260509102832 42 157 0.0 0.0 0.00 0.01 0.01 92 1011.0
20260509102328 41 173 0.0 0.0 0.00 0.01 0.01 92 1011.0
20260509101824 41 175 0.0 0.0 0.00 0.01 0.01 92 1010.9
20260509101320 41 174 1.0 1.0 0.00 0.01 0.01 92 1011.0
20260509100818 41 152 0.0 0.0 0.00 0.01 0.01 92 1010.7
20260509100315 41 122 2.0 2.0 0.00 0.01 0.01 92 1010.9
20260509095812 41 148 1.0 2.0 0.00 0.01 0.01 91 1011.0
20260509095309 41 155 0.0 0.0 0.00 0.01 0.01 91 1011.0
20260509094806 41 155 0.0 0.0 0.00 0.01 0.01 91 1010.9
20260509094303 41 154 0.0 0.0 0.00 0.01 0.01 91 1010.8
20260509093801 41 144 0.0 0.0 0.00 0.01 0.01 91 1011.0
20260509093258 41 131 1.0 2.0 0.05 0.01 0.01 91 1011.0
20260509092756 41 167 0.0 0.0 0.05 0.01 0.01 91 1011.1
20260509092254 41 164 0.0 1.0 0.00 0.00 0.00 91 1011.1
20260509091751 41 140 0.0 0.0 0.00 0.00 0.00 91 1010.9
20260509091248 41 144 1.0 2.0 0.00 0.00 0.00 91 1011.1
20260509090745 41 146 1.0 1.0 0.00 0.00 0.00 90 1011.1
20260509090242 40 156 0.0 0.0 0.00 0.00 0.00 90 1011.2
20260509085740 40 155 0.0 0.0 0.00 0.00 0.00 90 1011.0
20260509085237 40 144 0.0 0.0 0.00 0.00 0.00 90 1011.1
20260509084733 40 148 0.0 0.0 0.00 0.00 0.00 90 1011.1
20260509084230 40 170 1.0 1.0 0.00 0.00 0.00 90 1011.1
20260509083728 40 174 1.0 2.0 0.00 0.00 0.00 90 1011.3
20260509083225 40 147 1.0 1.0 0.00 0.00 0.00 90 1011.3
20260509082721 40 130 2.0 2.0 0.00 0.00 0.00 90 1011.4
20260509082218 40 131 2.0 2.0 0.00 0.00 0.00 90 1011.6
20260509081715 40 161 0.0 0.0 0.00 0.00 0.00 90 1011.7
20260509081212 40 155 1.0 1.0 0.00 0.00 0.00 90 1011.5
20260509080711 40 155 0.0 0.0 0.00 0.00 0.00 90 1011.7
20260509080208 40 176 0.0 0.0 0.00 0.00 0.00 90 1011.6
20260509075706 40 176 0.0 0.0 0.00 0.00 0.00 90 1011.8
20260509075203 40 176 0.0 0.0 0.00 0.00 0.00 90 1011.5
20260509074700 40 176 0.0 0.0 0.00 0.00 0.00 90 1011.5
20260509074157 40 176 0.0 0.0 0.00 0.00 0.00 90 1011.4
20260509073654 40 176 0.0 0.0 0.00 0.00 0.00 89 1011.7
20260509073149 40 176 0.0 0.0 0.00 0.00 0.00 89 1011.7
20260509072647 40 176 0.0 0.0 0.00 0.00 0.00 89 1011.6
20260509072143 40 176 0.0 0.0 0.00 0.00 0.00 89 1011.6
20260509071640 40 176 0.0 0.0 0.00 0.00 0.00 89 1011.7
20260509071137 39 176 0.0 0.0 0.00 0.00 0.00 89 1011.6
20260509070634 39 176 0.0 0.0 0.00 0.00 0.00 89 1011.5
20260509070131 39 176 0.0 0.0 0.00 0.00 0.00 89 1011.5
20260509065626 39 176 0.0 0.0 0.00 0.00 0.00 89 1011.5
20260509065123 39 176 1.0 1.0 0.00 0.00 0.00 89 1011.5
20260509064620 40 176 0.0 0.0 0.00 0.00 0.00 89 1011.7
20260509064118 39 176 0.0 0.0 0.00 0.00 0.00 89 1011.8
20260509063614 40 176 1.0 1.0 0.00 0.00 0.00 89 1011.7
20260509063111 40 176 0.0 0.0 0.00 0.00 0.00 88 1011.8
20260509062608 40 176 0.0 0.0 0.00 0.00 0.00 88 1011.9
20260509062105 40 176 0.0 0.0 0.00 0.00 0.00 88 1011.8
20260509061602 39 176 0.0 0.0 0.00 0.00 0.00 88 1012.1
20260509061059 39 176 0.0 0.0 0.00 0.00 0.00 88 1012.2
20260509060557 39 176 1.0 1.0 0.00 0.00 0.00 88 1012.2
20260509060052 39 176 1.0 1.0 0.00 0.00 0.00 88 1012.1
20260509055548 39 176 0.0 0.0 0.00 0.00 0.00 88 1012.2
20260509055044 39 177 0.0 0.0 0.00 0.00 0.00 88 1012.3
20260509054541 39 177 0.0 0.0 0.00 0.00 0.00 88 1012.3
20260509054039 39 177 0.0 0.0 0.00 0.00 0.00 87 1012.2
20260509053538 39 177 0.0 0.0 0.00 0.00 0.00 87 1012.3
20260509053034 39 177 0.0 0.0 0.00 0.00 0.00 87 1012.2
20260509052532 39 177 0.0 0.0 0.00 0.00 0.00 87 1012.2
20260509052030 39 178 0.0 0.0 0.00 0.00 0.00 87 1012.2
20260509051527 39 179 0.0 0.0 0.00 0.00 0.00 87 1012.4
20260509051024 39 177 0.0 1.0 0.00 0.00 0.00 87 1012.4
20260509050521 39 166 1.0 1.0 0.00 0.00 0.00 87 1012.5
20260509050017 39 175 0.0 0.0 0.00 0.00 0.00 87 1012.3
20260509045515 39 158 0.0 0.0 0.00 0.00 0.00 87 1012.1
20260509045012 39 138 1.0 1.0 0.00 0.00 0.00 87 1012.6
20260509044509 39 147 1.0 1.0 0.00 0.00 0.00 87 1012.6
20260509044007 39 148 0.0 0.0 0.00 0.00 0.00 86 1012.4
20260509043502 39 149 0.0 0.0 0.00 0.00 0.00 86 1012.7
20260509042957 38 148 0.0 0.0 0.00 0.00 0.00 86 1012.4
20260509042455 39 148 0.0 0.0 0.00 0.00 0.00 86 1012.6
20260509041950 39 149 0.0 0.0 0.00 0.00 0.00 86 1012.5
20260509041448 39 150 1.0 1.0 0.00 0.00 0.00 86 1012.4
20260509040946 39 152 0.0 0.0 0.00 0.00 0.00 85 1012.9
20260509040444 38 152 0.0 0.0 0.00 0.00 0.00 85 1012.6
20260509035940 38 152 0.0 0.0 0.00 0.07 0.07 85 1012.7
20260509035437 38 151 0.0 0.0 0.00 0.07 0.07 84 1012.7
20260509034933 38 174 0.0 0.0 0.00 0.07 0.07 84 1012.5
20260509034431 38 176 1.0 1.0 0.00 0.07 0.07 84 1012.5
20260509033928 39 66 3.0 3.0 0.00 0.07 0.07 84 1012.6
20260509033425 39 100 2.0 2.0 0.00 0.07 0.07 83 1012.6
20260509032922 39 187 0.0 0.0 0.00 0.07 0.07 83 1012.5
20260509032420 39 191 1.0 1.0 0.00 0.07 0.07 82 1012.4
20260509031917 40 151 0.0 0.0 0.00 0.07 0.07 82 1012.5
20260509031414 40 152 0.0 0.0 0.00 0.07 0.07 82 1012.6
20260509030911 40 151 1.0 1.0 0.00 0.07 0.07 81 1012.8
20260509030410 39 174 0.0 0.0 0.00 0.07 0.07 80 1012.8
20260509025907 40 111 1.0 2.0 0.00 0.07 0.07 80 1012.6
20260509025402 40 153 1.0 1.0 0.00 0.07 0.07 79 1012.7
20260509024857 40 106 2.0 2.0 0.00 0.07 0.07 79 1012.7
20260509024353 40 117 1.0 1.0 0.00 0.07 0.07 78 1012.7
20260509023851 41 132 1.0 1.0 0.00 0.07 0.07 77 1012.7
20260509023348 41 110 2.0 2.0 0.00 0.07 0.07 77 1012.7
20260509022844 41 134 1.0 1.0 0.00 0.07 0.07 76 1012.7
20260509022342 41 131 1.0 1.0 0.00 0.07 0.07 76 1012.7
20260509021838 42 140 0.0 0.0 0.00 0.07 0.07 75 1012.6
20260509021336 42 111 2.0 2.0 0.00 0.07 0.07 75 1012.6
20260509020833 43 106 2.0 2.0 0.00 0.07 0.07 75 1012.8
20260509020332 43 139 1.0 2.0 0.00 0.07 0.07 74 1012.7
20260509015828 44 165 0.0 0.0 0.00 0.07 0.07 74 1012.7
20260509015327 44 163 0.0 0.0 0.00 0.07 0.07 74 1012.8
20260509014823 44 179 1.0 1.0 0.00 0.07 0.07 73 1012.4
20260509014320 46 140 1.0 1.0 0.00 0.07 0.07 73 1012.4
20260509013817 46 141 1.0 1.0 0.00 0.07 0.07 73 1012.4
20260509013313 46 139 1.0 2.0 0.00 0.07 0.07 74 1012.5
20260509012809 46 145 0.0 0.0 0.00 0.07 0.07 74 1012.3
20260509012307 46 129 1.0 1.0 0.00 0.07 0.07 74 1012.2
20260509011803 46 142 1.0 1.0 0.00 0.07 0.07 74 1012.4
20260509011301 46 155 0.0 1.0 0.00 0.07 0.07 73 1012.3
20260509010758 46 159 0.0 1.0 0.00 0.07 0.07 73 1012.3
20260509010255 46 162 0.0 0.0 0.00 0.07 0.07 72 1012.1
20260509005752 47 162 0.0 0.0 0.00 0.07 0.07 70 1012.0
20260509005250 47 161 1.0 1.0 0.00 0.07 0.07 68 1011.8
20260509004744 47 338 1.0 1.0 0.00 0.07 0.07 68 1011.7
20260509004241 47 113 2.0 2.0 0.00 0.07 0.07 69 1011.6
20260509003739 47 166 0.0 0.0 0.00 0.07 0.07 68 1011.7
20260509003236 47 166 0.0 0.0 0.00 0.07 0.07 67 1011.6
20260509002734 47 167 0.0 0.0 0.00 0.07 0.07 67 1011.5
20260509002231 47 153 0.0 1.0 0.00 0.07 0.07 67 1011.5
20260509001729 47 128 1.0 1.0 0.00 0.07 0.07 66 1011.3
20260509001224 47 100 2.0 2.0 0.00 0.07 0.07 64 1011.3
20260509000723 48 58 2.0 2.0 0.00 0.07 0.07 63 1011.4
20260509000220 49 83 2.0 2.0 0.00 0.07 0.07 61 1011.4
20260508235716 50 92 2.0 2.0 0.00 0.07 0.07 58 1011.4
20260508235213 50 40 3.0 3.0 0.00 0.07 0.07 58 1011.3
20260508234711 51 109 1.0 1.0 0.00 0.07 0.07 56 1011.2
20260508234207 52 98 2.0 2.0 0.00 0.07 0.07 56 1011.1
20260508233706 52 72 2.0 2.0 0.00 0.07 0.07 51 1011.0
20260508233204 53 22 3.0 3.0 0.00 0.07 0.07 51 1011.0
20260508232701 54 343 3.0 3.0 0.00 0.07 0.07 49 1011.1
20260508232157 55 99 2.0 2.0 0.00 0.07 0.07 50 1011.1
20260508231655 55 212 2.0 2.0 0.00 0.07 0.07 47 1011.3
20260508231152 54 206 0.0 0.0 0.00 0.07 0.07 49 1011.1
20260508230649 55 275 1.0 2.0 0.00 0.07 0.07 49 1010.9
20260508230145 55 102 1.0 1.0 0.00 0.07 0.07 48 1011.2
20260508225643 55 229 1.0 1.0 0.00 0.07 0.07 49 1011.1
20260508225139 54 244 1.0 1.0 0.00 0.07 0.07 49 1010.8
20260508224637 54 48 4.0 5.0 0.00 0.07 0.07 49 1010.9
20260508224134 55 56 3.0 3.0 0.00 0.07 0.07 48 1011.0
20260508223632 55 279 4.0 6.0 0.00 0.07 0.07 47 1011.0
20260508223129 56 357 3.0 3.0 0.00 0.07 0.07 47 1010.9
20260508222626 55 40 2.0 2.0 0.00 0.07 0.07 47 1010.9
20260508222123 55 298 3.0 3.0 0.00 0.07 0.07 48 1011.0
20260508221619 55 5 3.0 5.0 0.00 0.07 0.07 49 1010.9
20260508221115 56 314 4.0 5.0 0.00 0.07 0.07 47 1011.0
20260508220612 57 327 5.0 6.0 0.00 0.07 0.07 46 1011.0
20260508220108 57 185 0.0 1.0 0.00 0.07 0.07 45 1011.1
20260508215605 55 183 1.0 1.0 0.00 0.07 0.07 46 1011.0
20260508215102 54 240 2.0 2.0 0.00 0.07 0.07 48 1011.2
20260508214559 55 101 2.0 2.0 0.00 0.07 0.07 49 1011.1
20260508214055 54 81 1.0 2.0 0.00 0.07 0.07 48 1011.2
20260508213553 55 28 3.0 3.0 0.00 0.07 0.07 49 1011.1
20260508213048 55 116 2.0 2.0 0.00 0.07 0.07 48 1011.1
20260508212545 57 283 4.0 5.0 0.00 0.07 0.07 46 1011.1
20260508212042 57 260 2.0 2.0 0.00 0.07 0.07 46 1011.3
20260508211537 55 190 2.0 2.0 0.00 0.07 0.07 46 1011.0
20260508211034 56 11 4.0 5.0 0.00 0.07 0.07 47 1011.2
20260508210530 55 313 3.0 3.0 0.00 0.07 0.07 47 1011.1
20260508210028 56 233 2.0 3.0 0.00 0.07 0.07 46 1011.4
20260508205525 56 25 5.0 6.0 0.00 0.07 0.07 47 1011.4
20260508205021 55 310 2.0 2.0 0.00 0.07 0.07 48 1011.2
20260508204518 55 209 3.0 3.0 0.00 0.07 0.07 47 1011.5
20260508204014 55 298 4.0 6.0 0.00 0.07 0.07 47 1011.4
20260508203510 56 301 5.0 7.0 0.00 0.07 0.07 45 1011.6
20260508203006 55 264 3.0 5.0 0.00 0.07 0.07 48 1011.7
20260508202503 56 121 1.0 2.0 0.00 0.07 0.07 49 1011.8
20260508202000 56 291 6.0 8.0 0.00 0.07 0.07 46 1011.6
20260508201456 54 270 4.0 5.0 0.00 0.07 0.07 49 1011.7
20260508200953 55 167 0.0 1.0 0.00 0.07 0.07 49 1011.7
20260508200450 54 194 2.0 2.0 0.00 0.07 0.07 52 1012.0
20260508195945 53 13 4.0 6.0 0.00 0.07 0.07 53 1012.2
20260508195443 54 298 4.0 5.0 0.00 0.07 0.07 53 1012.0
20260508194939 53 276 6.0 8.0 0.00 0.07 0.07 53 1012.0
20260508194436 53 347 4.0 5.0 0.00 0.07 0.07 55 1011.9
20260508193933 52 189 2.0 3.0 0.00 0.07 0.07 56 1012.2
20260508193430 52 226 5.0 6.0 0.00 0.07 0.07 54 1012.3
20260508192926 52 309 6.0 9.0 0.00 0.07 0.07 55 1012.5
20260508192423 52 328 5.0 7.0 0.00 0.07 0.07 57 1012.4
20260508191920 53 235 2.0 2.0 0.00 0.07 0.07 56 1012.5
20260508191417 52 4 2.0 3.0 0.00 0.07 0.07 57 1012.4
20260508190914 50 240 1.0 3.0 0.00 0.07 0.07 60 1012.5
20260508190411 50 305 5.0 7.0 0.00 0.07 0.07 58 1012.6
20260508185907 51 13 9.0 14.0 0.00 0.07 0.07 58 1012.6
20260508185405 52 273 3.0 6.0 0.00 0.07 0.07 58 1012.8
20260508184901 50 239 5.0 6.0 0.00 0.07 0.07 60 1012.8
20260508184359 50 298 7.0 9.0 0.00 0.07 0.07 60 1012.8
20260508183850 50 335 4.0 6.0 0.00 0.07 0.07 60 1012.7
20260508183346 51 291 6.0 8.0 0.00 0.07 0.07 60 1012.8
20260508182842 53 327 4.0 7.0 0.00 0.07 0.07 59 1012.9
20260508182339 50 182 0.0 0.0 0.00 0.07 0.07 65 1012.9
20260508181835 49 228 3.0 5.0 0.00 0.07 0.07 64 1012.9
20260508181332 50 156 0.0 0.0 0.00 0.07 0.07 65 1013.0
20260508180829 50 231 4.0 6.0 0.00 0.07 0.07 67 1013.1
20260508180326 49 273 4.0 6.0 0.00 0.07 0.07 68 1013.1
20260508175822 49 190 0.0 0.0 0.00 0.07 0.07 71 1013.3
20260508175318 48 161 0.0 0.0 0.00 0.07 0.07 73 1013.0
20260508174817 48 157 2.0 2.0 0.00 0.07 0.07 71 1013.0
20260508174314 48 192 1.0 1.0 0.00 0.07 0.07 72 1013.0
20260508173810 47 197 0.0 0.0 0.00 0.07 0.07 73 1013.4
20260508173307 46 345 3.0 3.0 0.00 0.07 0.07 73 1013.1
20260508172803 47 222 2.0 2.0 0.00 0.07 0.07 73 1013.5
20260508172300 47 232 2.0 2.0 0.00 0.07 0.07 72 1013.4
20260508171756 48 210 1.0 3.0 0.00 0.07 0.07 72 1013.3
20260508171253 48 176 0.0 1.0 0.00 0.07 0.07 72 1013.4
20260508170750 48 267 3.0 3.0 0.00 0.07 0.07 73 1013.4
20260508170248 48 131 1.0 1.0 0.00 0.07 0.07 75 1013.4
20260508165744 47 181 3.0 3.0 0.00 0.07 0.07 76 1013.4
20260508165242 46 98 0.0 1.0 0.00 0.07 0.07 79 1013.3
20260508164738 45 51 1.0 2.0 0.00 0.07 0.07 83 1013.4
20260508164234 44 195 3.0 5.0 0.00 0.07 0.07 85 1013.5
20260508163733 44 165 1.0 1.0 0.00 0.07 0.07 88 1013.6
20260508163230 43 185 2.0 2.0 0.00 0.07 0.07 89 1013.5
20260508162725 42 219 3.0 3.0 0.00 0.07 0.07 89 1013.7
20260508162223 42 183 2.0 2.0 0.00 0.07 0.07 90 1013.8
20260508161719 41 182 1.0 1.0 0.00 0.07 0.07 90 1014.0
20260508161217 40 141 0.0 1.0 0.00 0.07 0.07 90 1013.9
20260508160715 40 148 1.0 1.0 0.00 0.07 0.07 90 1014.0
20260508160213 40 232 2.0 2.0 0.00 0.07 0.07 90 1013.9
20260508155709 39 51 1.0 2.0 0.00 0.07 0.07 90 1013.8
20260508155206 39 180 0.0 1.0 0.00 0.07 0.07 90 1014.2
20260508154703 39 172 1.0 1.0 0.00 0.07 0.07 90 1014.1
20260508154200 39 267 1.0 2.0 0.00 0.07 0.07 90 1013.9
20260508153656 40 185 1.0 1.0 0.00 0.07 0.07 90 1013.9
20260508153154 39 180 0.0 1.0 0.00 0.07 0.07 90 1013.8
20260508152650 39 85 2.0 2.0 0.07 0.07 0.07 89 1013.7
20260508152146 39 148 1.0 1.0 0.07 0.07 0.07 89 1013.6
20260508151643 39 143 1.0 1.0 0.00 0.06 0.06 89 1013.9
20260508151139 39 183 1.0 1.0 0.00 0.06 0.06 89 1013.9
20260508150636 39 191 1.0 1.0 0.00 0.06 0.06 89 1013.8
20260508150133 39 216 1.0 1.0 0.00 0.06 0.06 89 1013.7
20260508145629 39 170 0.0 0.0 0.00 0.06 0.06 89 1013.4
20260508145125 39 167 0.0 0.0 0.00 0.06 0.06 89 1013.8
20260508144623 39 157 0.0 1.0 0.00 0.06 0.06 89 1013.8
20260508144121 38 340 2.0 2.0 0.00 0.06 0.06 88 1013.7
20260508143618 38 336 4.0 5.0 0.00 0.06 0.06 88 1013.7
20260508143114 38 20 5.0 6.0 0.00 0.06 0.06 88 1013.7
20260508142611 38 28 3.0 3.0 0.00 0.06 0.06 87 1013.9
20260508142108 38 22 2.0 2.0 0.05 0.06 0.06 87 1013.7
20260508141604 39 9 3.0 3.0 0.12 0.06 0.06 87 1013.7
20260508141102 39 327 3.0 3.0 0.07 0.05 0.05 86 1013.8
20260508140559 40 58 2.0 3.0 0.05 0.04 0.04 86 1013.8
20260508140055 40 19 6.0 8.0 0.05 0.04 0.04 85 1013.7
20260508135551 40 356 2.0 2.0 0.07 0.03 0.03 84 1013.7
20260508135047 41 294 5.0 6.0 0.07 0.03 0.03 83 1013.4
20260508134544 41 206 1.0 2.0 0.00 0.02 0.02 82 1013.4
20260508134041 41 193 2.0 2.0 0.00 0.02 0.02 81 1013.0
20260508133538 41 195 2.0 2.0 0.05 0.02 0.02 81 1013.3
20260508133035 41 189 1.0 1.0 0.12 0.02 0.02 79 1013.0
20260508132533 42 195 1.0 1.0 0.07 0.01 0.01 78 1012.8
20260508132030 43 243 2.0 3.0 0.00 0.00 0.00 79 1012.9
20260508131525 43 207 2.0 3.0 0.00 0.00 0.00 79 1012.8
20260508131022 43 167 0.0 1.0 0.00 0.00 0.00 80 1012.7
20260508130519 43 180 0.0 0.0 0.00 0.00 0.00 80 1012.5
20260508130015 43 171 1.0 2.0 0.00 0.00 0.00 81 1012.7
20260508125511 42 171 0.0 1.0 0.00 0.00 0.00 81 1012.4
20260508125009 42 162 1.0 1.0 0.00 0.00 0.00 81 1012.3